Spirit of St Louis, MO

4:15 AM CDT on August 17, 2017 (GMT -0500)
Spirit Of Saint Louis

Weather History for KSUS - March, 2013

Change the Weather History Date:

Wednesday, March 13, 2013

  Actual Average Record
Temperature  
Mean Temperature 34 °F -  
Max Temperature 43 °F 51 °F 82 °F (2012)
Min Temperature 26 °F 30 °F 21 °F (2005)
Degree Days  
Heating Degree Days 32    
Moisture  
Dew Point 18 °F    
Average Humidity 55    
Maximum Humidity 78    
Minimum Humidity 36    
Precipitation  
Precipitation 0.00 in - - ()
Sea Level Pressure  
Sea Level Pressure 30.37 in    
Wind  
Wind Speed 13 mph (NW)    
Max Wind Speed 20 mph    
Max Gust Speed 26 mph    
Visibility 10 miles    
Events Snow    
Averages and records for this station are not official NWS values.
T = Trace of Precipitation, MM = Missing Value Source: NWS Daily Summary

Daily Weather History Graph

Daily Weather History Graph

Search for Another Location

Airport or City:

Trip Planner

Search our weather history database for the weather conditions in past years. The results will help you decide how hot, cold, wet, or windy it might be!

Date:

Astronomy

Mar. 13, 2013 Rise Set
Actual Time 7:16 AM CDT 7:07 PM CDT
Civil Twilight 6:50 AM CDT 7:34 PM CDT
Nautical Twilight 6:19 AM CDT 8:05 PM CDT
Astronomical Twilight 5:48 AM CDT 8:36 PM CDT
Moon 7:57 AM CDT (3/13) 9:22 PM CDT (3/13)
Length of Visible Light 12h 44m
Length of Day
11h 51m
Waxing Crescent, 4% of the Moon is Illuminated
Mar 13
Waxing Crescent
Mar 19
First Quarter
Mar 27
Full
Apr 2
Last Quarter
Apr 10
New

Hourly Weather History & Observations

Time (CDT) Temp. Windchill Dew Point Humidity Pressure Visibility Wind Dir Wind Speed Gust Speed Precip Events Conditions
12:54 AM 34.0 °F 22.7 °F 21.0 °F 59% 30.24 in 10.0 mi NW 19.6 mph 25.3 mph N/A   Overcast
1:54 AM 33.1 °F 21.9 °F 21.0 °F 61% 30.25 in 10.0 mi WNW 18.4 mph 24.2 mph 0.00 in   Overcast
2:54 AM 30.9 °F 20.2 °F 23.0 °F 72% 30.27 in 7.0 mi NW 15.0 mph 26.5 mph 0.00 in Snow Light Snow
3:12 AM 30.2 °F 20.2 °F 19.4 °F 64% 30.25 in 10.0 mi NW 12.7 mph 21.9 mph 0.00 in   Mostly Cloudy
3:54 AM 28.9 °F 18.6 °F 17.1 °F 61% 30.27 in 10.0 mi NW 12.7 mph 20.7 mph 0.00 in   Partly Cloudy
4:54 AM 30.0 °F 22.4 °F 17.1 °F 59% 30.28 in 10.0 mi WNW 8.1 mph - N/A   Overcast
5:54 AM 30.0 °F 23.2 °F 19.0 °F 64% 30.30 in 10.0 mi WNW 6.9 mph - N/A   Overcast
6:54 AM 28.9 °F 18.2 °F 17.1 °F 61% 30.33 in 10.0 mi NW 13.8 mph - N/A   Mostly Cloudy
7:54 AM 28.9 °F 18.6 °F 17.1 °F 61% 30.35 in 10.0 mi NW 12.7 mph - N/A   Scattered Clouds
8:54 AM 30.0 °F 18.7 °F 14.0 °F 51% 30.38 in 10.0 mi NW 16.1 mph 25.3 mph N/A   Scattered Clouds
9:54 AM 32.0 °F 20.8 °F 15.1 °F 50% 30.40 in 10.0 mi WNW 17.3 mph 25.3 mph N/A   Partly Cloudy
10:54 AM 33.1 °F 22.2 °F 15.1 °F 48% 30.42 in 10.0 mi NW 17.3 mph 21.9 mph N/A   Scattered Clouds
11:54 AM 36.0 °F 27.5 °F 16.0 °F 44% 30.44 in 10.0 mi NW 12.7 mph 24.2 mph N/A   Scattered Clouds
12:54 PM 37.0 °F 28.9 °F 16.0 °F 42% 30.45 in 10.0 mi NNW 12.7 mph 24.2 mph N/A   Scattered Clouds
1:54 PM 41.0 °F 32.2 °F 18.0 °F 40% 30.44 in 10.0 mi WNW 18.4 mph 26.5 mph N/A   Clear
2:54 PM 41.0 °F 32.2 °F 17.1 °F 38% 30.43 in 10.0 mi NW 18.4 mph 23.0 mph N/A   Partly Cloudy
3:54 PM 41.0 °F 34.7 °F 16.0 °F 36% 30.43 in 10.0 mi NW 10.4 mph - N/A   Partly Cloudy
4:54 PM 41.0 °F 35.2 °F 16.0 °F 36% 30.42 in 10.0 mi NNW 9.2 mph - N/A   Clear
5:54 PM 41.0 °F 37.1 °F 16.0 °F 36% 30.41 in 10.0 mi NW 5.8 mph - N/A   Clear
6:54 PM 37.9 °F 32.7 °F 18.0 °F 45% 30.42 in 10.0 mi NW 6.9 mph - N/A   Clear
7:54 PM 32.0 °F - 19.9 °F 61% 30.42 in 10.0 mi Calm Calm - N/A   Clear
8:54 PM 28.9 °F - 21.0 °F 72% 30.43 in 10.0 mi Calm Calm - N/A   Clear
9:54 PM 30.0 °F - 21.0 °F 69% 30.44 in 10.0 mi Calm Calm - N/A   Clear
10:54 PM 26.1 °F - 19.9 °F 78% 30.44 in 10.0 mi Calm Calm - N/A   Clear
11:54 PM 26.1 °F - 19.9 °F 78% 30.43 in 10.0 mi Calm Calm - N/A   Clear